{"data":{"norad_id":27640,"epoch":"2026-05-25T00:20:21.512832Z","epoch_age_seconds":63925,"freshness":"FRESH","line1":"1 27640U 03001A   26145.01413788  .00000085  00000+0  60710-4 0  9993","line2":"2 27640  98.7129 152.2527 0012802 280.7551  79.2184 14.19937671210936","mean_motion":14.19937671,"eccentricity":0.0012802,"inclination_deg":98.7129,"raan_deg":152.2527,"arg_perigee_deg":280.7551,"mean_anomaly_deg":79.2184,"bstar":6.071e-5,"rev_number":21093,"period_min":101.41290208787,"perigee_km":816.34141380505,"apogee_km":834.78576879902,"semimajor_km":7203.700591302,"source":"CELESTRAK","updated_at":"2026-05-25T13:38:24.637049Z"}}